Showing default

SPACEMOBILE-001, 61047

Orbit data source: Space-Track

SPACEMOBILE-001, 61047 is a payload satellite owned by AST & Science (US) in LEO that was launched on Thu, 12 Sep 2024 UTC via an FALCON 9 launch vehicle from the Air Force Eastern Test Range (AFETR). Payload-class satellites include a variety of spacecraft equipped with specific instruments for various scientific and technological missions. These include communications satellites like Starlink; space stations such as the ISS; scientific satellites like the Hubble; Earth observation satellites from companies like Planet Labs, Umbra, and HawkEye 360; GPS; miniature CubeSats for education and research; and military/defense satellites.

Loading next visibility...
Identifier
61047, 2024-163C
Orbit
LEO
Last TLE update
1 day ago
Origin
Manufacturer
AST & Science
Mission
Operational Commercial Communications
Bus & Motor
BW3, Unknown motor
Mass
1,500 kg wet, 1,500 kg dry
Launch date (UTC)
2024-09-12 (10 months ago)
Launch vehicle
FALCON 9
Launch site
Air Force Eastern Test Range (AFETR)
Object type
Payload
Rocket body
Debris
Shape & HBR
Box + 1 Plate, 9 m
Radar Cross Section
1.500 m², Large (>1 m²)

Expand to show TLE details & history

TLE from 1 day ago
0 SPACEMOBILE-001
1 61047U 24163C   25191.42009451  .00002108  00000-0  11037-3 0  9993
2 61047  52.9687  80.9829 0011024 163.7218 196.4132 15.20361903 45756
Epoch: 2025-07-10T10:04Z
TLE epoch observation values (Epoch: 2025-07-10T10:04:56.165Z)
Latitude
-0.00004°
Longitude
1.16222°
Altitude
512.903 km
Speed
7.605 km/s
True Right ascension
05h 23m 55s
True Declination
0° 00' 00"
Sunlit
Object was in daylight at epoch
Visualization orbit readout
Latitude
39.72049°
Longitude
35.14426°
Altitude
511.304 km
Speed
7.612 km/s
Apparent Right ascension
08h 54m 57s
Apparent Declination
1° 50' 49"
Sunlit
Object is in daylight
Visualization observer readout
Local Sidereal Time
22:16:34
Azimuth
29.107° NE
Elevation
-44.252°
Doppler factor
1
Orbital elements
Apogee altitude
512.622 km
Perigee altitude
497.446 km
Semi-major axis
6,883.171 km
Eccentricity
0.0011
Inclination
52.9687°
RAAN
80.9829°
Arg. of periapsis
163.7218°
True anomaly
Unknown
Mean anomaly
196.4132°
Eccentric anomaly
Unknown
Mean motion
3.80067 °/min
Orbital period
94.72 mins
BSTAR
0.00011037
Loading maneuver chart data...
Loading SW <> Apogee altitude chart data...
Loading historical data...
Loading historical data...
Loading historical data...
Loading historical data...
Loading historical data...
Loading historical data...
Loading historical data...

SPACEMOBILE-001 Visibility forecast

Observer location: undefined°, undefined°

Span
Click to sort rows by Start time (UTC) header in descending order
Start Az.
Max El. time (UTC)
Max El. Az.
Max El.
End time (UTC)
End Az.
6 mins2025-07-11 19:24:46.099Z240.032° WSW2025-07-11 19:27:46.099Z10.314° NNE41.658°2025-07-11 19:30:46.099Z46.084° ENE
4 mins2025-07-12 00:24:46.099Z354.632° N2025-07-12 00:25:46.099Z15.653° NNE19.743°2025-07-12 00:28:46.099Z71.571° E
6 mins2025-07-12 02:02:46.099Z304.371° NW2025-07-12 02:04:46.099Z265.55° W43.465°2025-07-12 02:08:46.099Z136.242° SSE
|